KF4ZNO-13 Weather Reports


time (UTC)temp
C
wind
direction
speed
KPH
gust
KPH
rain 1hr
cm
rain 24hr
cm
rain mn
cm
humidity
%
barometer
mb
20260504175019 26 0.0 0.0 0.00 0.00 0.00 34 1018.7
20260504174040 25 0.0 0.0 0.00 0.00 0.00 37 1018.8
20260504173040 25 0.0 0.0 0.00 0.00 0.00 35 1019.0
20260504172019 25 0.0 0.0 0.00 0.00 0.00 39 1019.2
20260504171019 25 0.0 0.0 0.00 0.00 0.00 35 1019.1
20260504151019 22 0.0 0.0 0.00 0.00 0.00 48 1020.1
20260504141039 19 0.0 0.0 0.00 0.00 0.00 58 1020.4
20260504081018 10 0.0 0.0 0.00 0.00 0.00 85 1020.2
20260504050020 12 0.0 0.0 0.00 0.00 0.00 78 1021.0
20260504045019 12 0.0 0.0 0.00 0.00 0.00 78 1021.0
20260504044018 12 0.0 0.0 0.00 0.00 0.00 77 1021.0
20260504043038 12 0.0 0.0 0.00 0.00 0.00 77 1020.9
20260504042020 12 0.0 0.0 0.00 0.00 0.00 77 1020.9
20260504041020 12 0.0 0.0 0.00 0.00 0.00 76 1020.8
20260504040019 12 0.0 0.0 0.00 0.00 0.00 76 1020.9
20260504035019 13 0.0 0.0 0.00 0.00 0.00 76 1020.8
20260504034020 13 0.0 0.0 0.00 0.00 0.00 74 1020.9
20260504033020 13 0.0 0.0 0.00 0.00 0.00 74 1020.9
20260504032038 13 0.0 0.0 0.00 0.00 0.00 73 1021.0
20260504031040 13 0.0 0.0 0.00 0.00 0.00 72 1020.8
20260504030020 13 0.0 0.0 0.00 0.00 0.00 73 1020.8
20260504025018 14 0.0 0.0 0.00 0.00 0.00 70 1020.8
20260504024020 14 0.0 0.0 0.00 0.00 0.00 68 1020.5
20260504023020 14 0.0 0.0 0.00 0.00 0.00 68 1020.5
20260504022018 15 0.0 0.0 0.00 0.00 0.00 67 1020.4
20260504021018 15 0.0 0.0 0.00 0.00 0.00 67 1020.3
20260504020020 15 0.0 0.0 0.00 0.00 0.00 69 1020.3
20260504015020 15 0.0 0.0 0.00 0.00 0.00 69 1020.2
20260504014019 15 0.0 0.0 0.00 0.00 0.00 66 1020.1
20260504013020 15 0.0 0.0 0.00 0.00 0.00 66 1020.0
20260504012020 16 0.0 0.0 0.00 0.00 0.00 64 1019.7
20260504011020 16 0.0 0.0 0.00 0.00 0.00 63 1019.4
20260504010020 17 0.0 0.0 0.00 0.00 0.00 58 1019.3
20260504005020 17 0.0 0.0 0.00 0.00 0.00 60 1019.5
20260504004020 17 0.0 0.0 0.00 0.00 0.00 55 1019.3
20260504003020 18 0.0 0.0 0.00 0.00 0.00 57 1019.2
20260504002040 19 0.0 0.0 0.00 0.00 0.00 54 1019.1
20260504001020 20 0.0 0.0 0.00 0.00 0.00 47 1019.2
20260504000020 20 0.0 0.0 0.00 0.00 0.00 47 1019.1
20260503235020 20 0.0 0.0 0.00 0.00 0.00 46 1019.1
20260503234020 20 0.0 0.0 0.00 0.00 0.00 46 1019.1
20260503233019 21 0.0 0.0 0.00 0.00 0.00 45 1019.1
20260503232020 21 0.0 0.0 0.00 0.00 0.00 47 1019.1
20260503231020 21 0.0 0.0 0.00 0.00 0.00 48 1019.0
20260503230020 22 0.0 0.0 0.00 0.00 0.00 42 1018.9
20260503225019 22 0.0 0.0 0.00 0.00 0.00 40 1018.8
20260503224020 22 0.0 0.0 0.00 0.00 0.00 43 1018.7
20260503223020 22 0.0 0.0 0.00 0.00 0.00 43 1018.8
20260503222019 23 0.0 0.0 0.00 0.00 0.00 42 1018.9
20260503221019 23 0.0 0.0 0.00 0.00 0.00 40 1019.0
20260503220019 24 0.0 0.0 0.00 0.00 0.00 38 1019.0
20260503215019 24 0.0 0.0 0.00 0.00 0.00 39 1019.1
20260503214019 23 0.0 0.0 0.00 0.00 0.00 36 1019.3
20260503213019 23 0.0 0.0 0.00 0.00 0.00 38 1019.2
20260503212019 25 0.0 0.0 0.00 0.00 0.00 38 1019.3
20260503211020 25 0.0 0.0 0.00 0.00 0.00 34 1019.4
20260503210020 24 0.0 0.0 0.00 0.00 0.00 37 1019.4
20260503205019 24 0.0 0.0 0.00 0.00 0.00 36 1019.6
20260503204019 24 0.0 0.0 0.00 0.00 0.00 33 1019.9
20260503203020 24 0.0 0.0 0.00 0.00 0.00 31 1019.9
20260503202020 24 0.0 0.0 0.00 0.00 0.00 31 1020.0
20260503201020 25 0.0 0.0 0.00 0.00 0.00 35 1020.0
20260503200059 24 0.0 0.0 0.00 0.00 0.00 29 1020.0
20260503195020 25 0.0 0.0 0.00 0.00 0.00 30 1020.4
20260503194019 25 0.0 0.0 0.00 0.00 0.00 34 1020.7
20260503193019 24 0.0 0.0 0.00 0.00 0.00 34 1020.9
20260503192019 24 0.0 0.0 0.00 0.00 0.00 34 1021.1
20260503191039 24 0.0 0.0 0.00 0.00 0.00 32 1021.3
20260503190019 24 0.0 0.0 0.00 0.00 0.00 33 1021.4
20260503185019 24 0.0 0.0 0.00 0.00 0.00 35 1021.5
20260503184019 24 0.0 0.0 0.00 0.00 0.00 34 1021.7
20260503183019 25 0.0 0.0 0.00 0.00 0.00 38 1021.7
20260503182020 23 0.0 0.0 0.00 0.00 0.00 36 1021.7
20260503181019 23 0.0 0.0 0.00 0.00 0.00 35 1021.7
20260503180040 23 0.0 0.0 0.00 0.00 0.00 36 1021.7